(64627) = 1993 FV55 = 2001 XD43

Discovered at Socorro on 2001-12-09 by LINEAR.

Orbit

Orbit type: Main Belt

Note: WebGL enabled browser required.

epoch2024-03-31.0
epoch JD2460400.5
perihelion date2021-11-22.09171
perihelion JD2459540.59171
argument of perihelion (°)359.44545
ascending node (°)25.59469
inclination (°)12.58668
eccentricity0.0644730
perihelion distance (AU)2.7941549
Tisserand w.r.t. Jupiter3.2
ΔV w.r.t. Earth (km/sec)11.1
semimajor axis (AU)2.9867176
mean anomaly (°)164.19682
mean daily motion (°/day)0.19094690
aphelion distance (AU)3.179
period (years)5.16
P-vector [x]0.90591096
P-vector [y]0.38935864
P-vector [z]0.16650883
Q-vector [x]-0.41287157
Q-vector [y]0.72468631
Q-vector [z]0.55169450
absolute magnitude14.92
phase slope0.15
uncertainty0
referenceMPEC 2024-F50
observations used1142
oppositions21
arc length (days)11324
first opposition used1993
last opposition used2024
residual rms (arc-secs)0.65
perturbers coarse indicatorM-v
perturbers precise indicator003Ek
first observation date used1993-03-18.0
last observation date used2024-03-19.0
computer nameMPCLINUX
JD of orbit computation2456937.517419
perihelion JD uncertainty (days)1.6805E-04
argument of perihelion uncertainty (°)3.6548E-05
ascending node uncertainty (°)1.9283E-05
inclination uncertainty (°)6.0695E-06
eccentricity uncertainty 6.7658E-08
perihelion distance uncertainty (AU)2.0696E-07
Minimum Orbit Intersection Distances (in AU)
for orbit epoch: 2460400.5, reference: E2024-G95
Mercury2.44954
Venus2.07001
Earth1.79807
Mars1.34833
Jupiter2.15514
Saturn6.21312
Uranus15.3174
Neptune27.0321

Observations

1156 total observations over interval: 1993 03 17.19062 – 2024 03 19.507434
These data are available for download (format description).

Date (UT) J2000 RA J2000 Dec Magn Location Ref
1993 03 17.19062 12 53 04.84 +00 50 07.9 18.6   809 – European Southern Observatory, La Silla MPC 23621
1993 03 18.21840 12 52 16.00 +00 52 36.8 17.0   809 – European Southern Observatory, La Silla MPC 23621
1998 03 24.16014 11 59 48.66 +09 26 25.7 18.9   704 – Lincoln Laboratory ETS, New Mexico MPS 46792
1998 03 24.18039 11 59 47.59 +09 26 28.2 19.4   704 – Lincoln Laboratory ETS, New Mexico MPS 46792
1998 03 24.20109 11 59 46.53 +09 26 30.6 19.1   704 – Lincoln Laboratory ETS, New Mexico MPS 46792
1998 03 24.22148 11 59 45.60 +09 26 35.3 19.1   704 – Lincoln Laboratory ETS, New Mexico MPS 46792
1998 04 19.14697 11 40 30.99 +09 39 45.2 19.6   704 – Lincoln Laboratory ETS, New Mexico MPS 55183
1998 04 19.16721 11 40 30.18 +09 39 46.8 19.7   704 – Lincoln Laboratory ETS, New Mexico MPS 55183
1998 04 19.18734 11 40 29.62 +09 39 43.2 19.7   704 – Lincoln Laboratory ETS, New Mexico MPS 55183
1998 04 19.20758 11 40 28.84 +09 39 41.1 19.7   704 – Lincoln Laboratory ETS, New Mexico MPS 55183
2000 08 26.33755 23 11 06.84 -21 01 35.4 18.5   704 – Lincoln Laboratory ETS, New Mexico MPS 49719
2000 08 26.35090 23 11 06.13 -21 01 37.3 19.2   704 – Lincoln Laboratory ETS, New Mexico MPS 49719
2000 08 26.36426 23 11 05.48 -21 01 40.6 19.3   704 – Lincoln Laboratory ETS, New Mexico MPS 49719
2000 08 26.37764 23 11 04.72 -21 01 42.1 19.2   704 – Lincoln Laboratory ETS, New Mexico MPS 49719
2000 08 26.39101 23 11 04.00 -21 01 44.1 19.1   704 – Lincoln Laboratory ETS, New Mexico MPS 49719
2001 11 11.30799 05 26 41.01 +36 17 58.9 19.2   704 – Lincoln Laboratory ETS, New Mexico MPS 46792
2001 11 11.32369 05 26 40.35 +36 18 03.3 19.1   704 – Lincoln Laboratory ETS, New Mexico MPS 46792
2001 11 11.33791 05 26 39.83 +36 18 08.4 19.0   704 – Lincoln Laboratory ETS, New Mexico MPS 46792
2001 11 11.35196 05 26 39.17 +36 18 12.5 19.3   704 – Lincoln Laboratory ETS, New Mexico MPS 46792
2001 12 09.30951 04 59 48.22 +37 52 22.0 19.0   704 – Lincoln Laboratory ETS, New Mexico MPS 45126
2001 12 09.32467 04 59 47.28 +37 52 22.5 19.3   704 – Lincoln Laboratory ETS, New Mexico MPS 45126
2001 12 09.35581 04 59 45.04 +37 52 24.5 19.1   704 – Lincoln Laboratory ETS, New Mexico MPS 45126
2001 12 14.29803 04 54 16.45 +37 55 32.6 18.9   704 – Lincoln Laboratory ETS, New Mexico MPS 45126
2001 12 14.31443 04 54 15.31 +37 55 32.5 19.4   704 – Lincoln Laboratory ETS, New Mexico MPS 45126
2001 12 14.32941 04 54 14.23 +37 55 32.3 19.1   704 – Lincoln Laboratory ETS, New Mexico MPS 45126
2001 12 14.34501 04 54 13.21 +37 55 33.2 19.2   704 – Lincoln Laboratory ETS, New Mexico MPS 45126
2001 12 14.36034 04 54 12.21 +37 55 32.7 19.0   704 – Lincoln Laboratory ETS, New Mexico MPS 45126
2001 12 22.23097 04 45 57.54 +37 52 02.5 19.4   704 – Lincoln Laboratory ETS, New Mexico MPS 46792
2001 12 22.24624 04 45 56.65 +37 51 59.5 20.0   704 – Lincoln Laboratory ETS, New Mexico MPS 46792
2001 12 22.26133 04 45 55.68 +37 51 59.0 19.8   704 – Lincoln Laboratory ETS, New Mexico MPS 46792
2001 12 22.27647 04 45 54.88 +37 51 59.5 19.9   704 – Lincoln Laboratory ETS, New Mexico MPS 46792
2001 12 22.29153 04 45 53.89 +37 51 57.2 20.0   704 – Lincoln Laboratory ETS, New Mexico MPS 46792
2001 12 23.21469 04 44 59.88 +37 50 55.2 20.0   704 – Lincoln Laboratory ETS, New Mexico MPS 46792
2001 12 23.23004 04 44 58.93 +37 50 53.9 20.3   704 – Lincoln Laboratory ETS, New Mexico MPS 46792
2001 12 23.24542 04 44 58.00 +37 50 52.6 20.2   704 – Lincoln Laboratory ETS, New Mexico MPS 46792
2001 12 23.26088 04 44 57.16 +37 50 52.8 19.8   704 – Lincoln Laboratory ETS, New Mexico MPS 46792
2002 01 07.22310 04 33 07.51 +37 20 50.0 19.3   704 – Lincoln Laboratory ETS, New Mexico MPS 55183
2002 01 07.23812 04 33 07.01 +37 20 47.7 19.9   704 – Lincoln Laboratory ETS, New Mexico MPS 55183
2002 01 07.25317 04 33 06.39 +37 20 46.1 19.6   704 – Lincoln Laboratory ETS, New Mexico MPS 55183
2003 01 28.472950 11 49 55.216 +14 37 57.64 20.17 V 645 – Apache Point-Sloan Digital Sky Survey MPS 79994
2003 01 28.476422 11 49 55.152 +14 37 58.25 21.13   645 – Apache Point-Sloan Digital Sky Survey MPS 79994
2003 02 28.30608 11 31 06.65 +16 30 30.3 19.2   704 – Lincoln Laboratory ETS, New Mexico MPS 74160
2003 02 28.31959 11 31 05.91 +16 30 32.9 19.5   704 – Lincoln Laboratory ETS, New Mexico MPS 74160
2003 02 28.33435 11 31 05.16 +16 30 35.8 18.9   704 – Lincoln Laboratory ETS, New Mexico MPS 74160
2003 02 28.34894 11 31 04.42 +16 30 38.9 18.9   704 – Lincoln Laboratory ETS, New Mexico MPS 74160
2003 02 28.36333 11 31 03.59 +16 30 42.6 18.9   704 – Lincoln Laboratory ETS, New Mexico MPS 74160
2003 02 28.91270 11 30 35.64 +16 32 31.7 19.2 R 106 – Crni Vrh MPS 74160
2003 02 28.94125 11 30 34.30 +16 32 36.7 18.5 R 106 – Crni Vrh MPS 74160
2003 02 28.97572 11 30 32.41 +16 32 46.1 20.0 R 106 – Crni Vrh MPS 74160
2003 03 12.90803 11 20 01.90 +17 05 59.6 18.7 V 049 – Uppsala-Kvistaberg MPS 74160
2003 03 12.92112 11 20 01.21 +17 06 01.3 18.5 V 049 – Uppsala-Kvistaberg MPS 74160
2003 03 12.93766 11 20 00.29 +17 06 03.6 18.4 V 049 – Uppsala-Kvistaberg MPS 74160
2003 03 31.13150 11 05 12.19 +17 20 31.3 20.1   644 – Palomar Mountain/NEAT MPS 76068
2003 03 31.15458 11 05 11.17 +17 20 30.4 19.6   644 – Palomar Mountain/NEAT MPS 76068
2003 03 31.17541 11 05 10.28 +17 20 29.3 19.6   644 – Palomar Mountain/NEAT MPS 76068
2003 04 05.83383 11 01 28.85 +17 14 35.5 19.4 V 049 – Uppsala-Kvistaberg MPS 76068
2003 04 05.84663 11 01 28.42 +17 14 34.3 19.0 V 049 – Uppsala-Kvistaberg MPS 76068
2003 04 05.85954 11 01 27.95 +17 14 33.1 19.2 V 049 – Uppsala-Kvistaberg MPS 76068
2005 06 20.43367 22 31 29.61 -25 56 19.6 20.4   644 – Palomar Mountain/NEAT MPS 137299
2005 06 20.44347 22 31 29.70 -25 56 21.4 20.1   644 – Palomar Mountain/NEAT MPS 137299
2005 06 20.45448 22 31 29.89 -25 56 23.1 20.6   644 – Palomar Mountain/NEAT MPS 137299
2005 07 03.46153 22 32 54.96 -26 39 21.7 19.4   644 – Palomar Mountain/NEAT MPS 137814
2005 07 03.47278 22 32 54.90 -26 39 24.4 19.1   644 – Palomar Mountain/NEAT MPS 137814
2005 07 03.48393 22 32 54.86 -26 39 27.4 19.2   644 – Palomar Mountain/NEAT MPS 137814
2005 07 19.39323 22 28 51.68 -27 50 48.3 19.9   644 – Palomar Mountain/NEAT MPS 138570
2005 07 19.44401 22 28 50.17 -27 51 03.8 18.8   644 – Palomar Mountain/NEAT MPS 138570
2005 07 19.46641 22 28 49.52 -27 51 10.4 21.0   644 – Palomar Mountain/NEAT MPS 138570
2005 08 08.51836 22 15 19.54 -29 22 43.9 19.2 V E12 – Siding Spring Survey MPS 139515
2005 08 08.53013 22 15 18.90 -29 22 46.5 19.5 V E12 – Siding Spring Survey MPS 139515
2005 08 08.54189 22 15 18.32 -29 22 49.4 18.8 V E12 – Siding Spring Survey MPS 139515
2005 08 08.55358 22 15 17.60 -29 22 52.3 18.9 V E12 – Siding Spring Survey MPS 139515
2005 08 30.21670 21 55 26.79 -30 10 24.4 18.6 R 699 – Lowell Observatory-LONEOS MPS 140806
2005 08 30.23219 21 55 25.96 -30 10 25.8   699 – Lowell Observatory-LONEOS MPS 140806
2005 08 30.24769 21 55 24.97 -30 10 26.1   699 – Lowell Observatory-LONEOS MPS 140806
2005 08 30.26321 21 55 24.15 -30 10 25.2   699 – Lowell Observatory-LONEOS MPS 140806
2005 09 08.55824 21 47 34.58 -30 03 46.4 19.5 V E12 – Siding Spring Survey MPS 141483
2005 09 08.56690 21 47 34.18 -30 03 45.6 19.4 V E12 – Siding Spring Survey MPS 141483
2005 09 08.57586 21 47 33.72 -30 03 44.3 19.5 V E12 – Siding Spring Survey MPS 141483
2005 09 08.58476 21 47 33.25 -30 03 44.2 19.7 V E12 – Siding Spring Survey MPS 141483
2006 10 19.47288 04 21 17.53 +30 13 57.6 19.0 V 703 – Catalina Sky Survey MPS 183607
2006 10 19.48281 04 21 17.17 +30 14 00.4 18.8 V 703 – Catalina Sky Survey MPS 183607
2006 10 19.49270 04 21 16.95 +30 14 04.2 18.9 V 703 – Catalina Sky Survey MPS 183607
2006 10 19.50260 04 21 16.70 +30 14 06.1 19.1 V 703 – Catalina Sky Survey MPS 183607
2006 11 15.27130 04 00 21.93 +31 48 30.6 17.8   704 – Lincoln Laboratory ETS, New Mexico MPS 187940
2006 11 15.28374 04 00 21.14 +31 48 31.6 18.2   704 – Lincoln Laboratory ETS, New Mexico MPS 187940
2006 11 15.31068 04 00 19.44 +31 48 33.0 18.6   704 – Lincoln Laboratory ETS, New Mexico MPS 187940
2006 11 15.32355 04 00 18.58 +31 48 35.9 18.7   704 – Lincoln Laboratory ETS, New Mexico MPS 187940
2006 11 22.31321 03 52 55.27 +31 57 24.5 18.1 V 703 – Catalina Sky Survey MPS 189886
